[[{"header":{"parameterUnit":"m.s-1","parameterCategory":1,"la1":30.2991,"la2":30.254,"lo1":-89.0895,"lo2":-89.0444,"dy":0.0017,"dx":0.0017,"nx":28,"ny":28,"refTime":"2024-07-04T09:00:00:Z","depth":0,"parameterNumber":2,"parameterNumberName":"U-component_of_WINDS"},"data":[0,0,0,0,0,0,0,0,0,0,0,0,0,0,0,0,0,0,0,0,0,0,0,0,0,0,0,0,0,0,0,0,0,0,0,0,0,0,0,0,0,0,0,0,0,0,0,0,0,0,0,0,0,0,0,0,0,0,1.1723,1.1724,0,1.1773,1.1774,1.1774,1.1761,1.176,1.1759,1.1759,1.181,1.1813,1.1815,0,0,0,0,0,0,0,0,0,0,0,0,0,1.1616,1.1618,1.1723,1.1724,1.1724,1.1773,1.1774,1.1774,1.1762,1.176,1.1759,1.1758,1.181,1.1812,1.1815,0,0,0,0,0,0,0,0,0,0,0,0,0,1.1664,1.1619,1.1723,1.1724,1.1724,1.1773,1.1774,1.1774,1.1762,1.176,1.1759,1.1758,1.1809,1.1812,1.1815,1.1866,0,0,1.1826,1.1827,0,0,0,0,0,0,0,0,1.1661,1.1668,1.1723,1.1724,1.1725,1.1759,1.1755,1.1805,1.1762,1.1748,1.1759,1.1757,1.1795,1.1799,1.1812,1.1869,1.1871,1.1826,1.1828,1.183,1.1831,0,0,0,0,0,0,0,1.1658,1.1666,1.1743,1.1724,1.1725,1.1721,1.1727,1.1764,1.1779,1.1749,1.1748,1.1754,1.1795,1.1808,1.1813,1.1871,1.1826,1.1829,1.1831,1.1833,1.197,1.1971,0,0,0,0,0,0,1.1654,1.1663,1.1741,1.1744,1.1689,1.1725,1.173,1.175,1.1778,1.1781,1.1755,1.1753,1.1803,1.1809,1.1815,1.1874,1.183,1.1833,1.1835,1.1968,1.197,1.1972,0,0,0,0,0,0,1.1652,1.1661,1.1739,1.1703,1.1713,1.1728,1.175,1.1752,1.1765,1.1783,1.1786,1.1767,1.1802,1.181,1.1853,1.1875,1.1835,1.1838,1.1966,1.1969,1.1971,1.1994,0,0,0,0,0,0,1.1649,1.166,1.168,1.1704,1.1715,1.1777,1.1751,1.1754,1.1771,1.1769,1.1795,1.1797,1.1802,1.1848,1.1856,1.1879,1.184,1.1964,1.1967,1.197,1.1991,1.1997,1.2001,0,0,0,0,0,1.1645,1.1685,1.1681,1.1691,1.174,1.1778,1.1784,1.1788,1.1773,1.1792,1.1804,1.1797,1.1872,1.1852,1.1862,1.1886,1.1963,1.1966,1.197,1.1989,1.1995,1.2001,0,0,0,0,0,0,1.1665,1.1689,1.1684,1.1734,1.1754,1.1776,1.1801,1.1796,1.1821,1.1818,1.1823,1.1828,1.1872,1.1884,1.1861,1.1936,1.1915,1.1921,1.1926,1.1933,1.1938,1.1933,1.1843,0,0,0,0,0,1.1674,1.1703,1.1723,1.1764,1.1775,1.1786,1.1803,1.1804,1.1825,1.1834,1.1848,1.1869,1.1897,1.1916,1.1943,1.1993,1.1997,1.2014,1.202,1.2024,1.2028,1.2053,1.206,1.1983,1.1983,1.1983,0,0,1.1695,1.1712,1.173,1.1769,1.1785,1.1814,1.1793,1.1826,1.1847,1.1839,1.1879,1.1891,1.1915,1.196,1.1981,1.1972,1.205,1.2028,1.2032,1.2034,1.2058,1.2065,1.2071,1.1986,1.1985,1.1985,0,0,1.1748,1.1765,1.18,1.1816,1.1839,1.1846,1.1855,1.1877,1.1884,1.1925,1.1919,1.1944,1.1993,1.201,1.2024,1.2081,1.2075,1.209,1.2117,1.2141,1.2147,1.2152,1.2171,1.2178,1.2095,1.2095,1.2095,0,1.1771,1.1815,1.1818,1.1851,1.1867,1.186,1.1895,1.191,1.1942,1.1953,1.1942,1.2001,1.2017,1.2066,1.2079,1.2092,1.2101,1.2087,1.2146,1.2151,1.2156,1.2174,1.2181,1.2096,1.2096,1.2096,1.2096,0,1.1841,1.1871,1.1897,1.1926,1.1946,1.1979,1.1987,1.2006,1.2006,1.2013,1.2054,1.2072,1.2102,1.2114,1.2114,1.2162,1.2155,1.2145,1.2124,1.2165,1.2182,1.2189,1.2099,1.2098,1.2098,1.2097,0,0,1.1907,1.1937,1.1946,1.1959,1.1984,1.2007,1.204,1.2068,1.2083,1.2105,1.2132,1.2173,1.2163,1.2179,1.2181,1.2203,1.2244,1.219,1.2191,1.2198,1.2295,1.2301,1.2309,1.224,1.2242,1.2243,1.2293,0,1.1961,1.2018,1.2021,1.2072,1.2099,1.2092,1.2121,1.2139,1.2147,1.217,1.218,1.2207,1.2194,1.2203,1.2224,1.2235,1.2263,1.2231,1.2264,1.2265,1.2257,1.2318,1.2325,1.2371,1.2299,1.2301,1.2301,0,1.2031,1.2053,1.2107,1.2126,1.2137,1.2163,1.2187,1.2211,1.2231,1.2235,1.2253,1.2251,1.2284,1.2262,1.2306,1.2284,1.2298,1.2305,1.2307,1.2309,1.2285,1.232,1.2387,1.2393,1.2312,1.2311,1.231,0,1.2071,1.2115,1.2152,1.2163,1.2187,1.2205,1.2215,1.2234,1.225,1.2272,1.2282,1.2308,1.2322,1.2342,1.2347,1.2331,1.239,1.237,1.2393,1.2393,1.2405,1.2404,1.2473,1.2417,1.2417,1.2417,1.2416,0,1.2129,1.2162,1.217,1.2193,1.2229,1.2232,1.2267,1.2277,1.2293,1.2317,1.2314,1.2336,1.2342,1.2366,1.237,1.2405,1.2412,1.2415,1.2416,1.2414,1.2414,1.2422,1.2419,1.2418,1.2418,1.2418,1.2417,0,1.218,1.2187,1.2227,1.2246,1.2251,1.2276,1.2292,1.2314,1.2321,1.2351,1.2358,1.2369,1.2397,1.2404,1.2437,1.244,1.248,1.2479,1.2473,1.2472,1.2495,1.2492,1.257,1.258,1.2519,1.252,1.252,0,1.2216,1.224,1.2261,1.2276,1.2288,1.2313,1.2329,1.2333,1.2349,1.2373,1.2391,1.2418,1.2439,1.2483,1.2494,1.2519,1.2516,1.2542,1.252,1.2518,1.2514,1.2512,1.2514,1.2546,1.2547,1.2547,1.2548,0,1.2278,1.2279,1.2302,1.2326,1.2345,1.2364,1.2382,1.2395,1.2401,1.242,1.2447,1.2464,1.2496,1.2522,1.2547,1.2558,1.2553,1.2554,1.2561,1.2559,1.2554,1.2555,1.2482,1.2552,1.2552,1.2552,1.2551,1.2551,1.2321,1.2341,1.2358,1.2384,1.2397,1.2414,1.2434,1.2443,1.2466,1.2492,1.2493,1.2523,1.254,1.2573,1.2585,1.2608,1.26,1.261,1.2612,1.2614,1.2614,1.2552,1.2612,1.2612,1.2612,1.2612,1.2612,0,1.2381,1.2391,1.2414,1.2439,1.2458,1.2452,1.2471,1.2488,1.2513,1.253,1.255,1.2581,1.2606,1.2618,1.2642,1.2658,1.2656,1.2664,1.2662,1.2664,1.2621,1.2612,1.2665,1.2665,1.2665,1.2665,1.2665,1.2665,1.2414,1.2448,1.2451,1.2492,1.2502,1.253,1.2541,1.2556,1.2569,1.2603,1.2623,1.2631,1.2645,1.267,1.2693,1.2696,1.2704,1.2712,1.2714,1.2673,1.2668,1.2663,1.2654,1.2715,1.2715,1.2755,1.2756,1.2756]},{"header":{"parameterUnit":"m.s-1","parameterCategory":1,"la1":30.2991,"la2":30.254,"lo1":-89.0895,"lo2":-89.0444,"dy":0.0017,"dx":0.0017,"nx":28,"ny":28,"refTime":"2024-07-04T09:00:00:Z","depth":0,"parameterNumber":3,"parameterNumberName":"V-component_of_WINDS"},"data":[0,0,0,0,0,0,0,0,0,0,0,0,0,0,0,0,0,0,0,0,0,0,0,0,0,0,0,0,0,0,0,0,0,0,0,0,0,0,0,0,0,0,0,0,0,0,0,0,0,0,0,0,0,0,0,0,0,0,2.7801,2.7801,0,2.785,2.785,2.7851,2.785,2.7849,2.7849,2.7848,2.7895,2.7897,2.7899,0,0,0,0,0,0,0,0,0,0,0,0,0,2.7702,2.7704,2.7801,2.7801,2.7802,2.7849,2.785,2.7851,2.785,2.7849,2.7849,2.7848,2.7895,2.7897,2.7899,0,0,0,0,0,0,0,0,0,0,0,0,0,2.7747,2.7704,2.78,2.7807,2.7808,2.7849,2.785,2.7851,2.785,2.7849,2.7848,2.7847,2.7894,2.7897,2.7899,2.7936,0,0,2.7908,2.7909,0,0,0,0,0,0,0,0,2.7745,2.7751,2.7806,2.7807,2.7808,2.7843,2.7833,2.7879,2.7851,2.7834,2.7848,2.7847,2.7878,2.7882,2.7894,2.7938,2.794,2.7908,2.791,2.7911,2.7912,0,0,0,0,0,0,0,2.7742,2.7749,2.782,2.7806,2.7808,2.7806,2.7812,2.7842,2.7861,2.7836,2.7836,2.7842,2.7879,2.7891,2.7895,2.7941,2.7908,2.7911,2.7912,2.7913,2.8015,2.8016,0,0,0,0,0,0,2.7737,2.7746,2.7818,2.7821,2.7773,2.7809,2.7815,2.7833,2.7861,2.7864,2.7842,2.7841,2.7887,2.7891,2.7896,2.7939,2.7911,2.7914,2.7915,2.8014,2.8015,2.8016,0,0,0,0,0,0,2.7735,2.7744,2.7816,2.7784,2.7793,2.7812,2.7831,2.7834,2.7846,2.7866,2.7869,2.7851,2.7886,2.7892,2.7926,2.7941,2.7915,2.7917,2.8012,2.8014,2.8015,2.8026,0,0,0,0,0,0,2.7733,2.7743,2.7758,2.7784,2.7795,2.7846,2.7833,2.7836,2.7851,2.785,2.7875,2.7878,2.7886,2.7921,2.7928,2.7944,2.792,2.8011,2.8013,2.8015,2.8024,2.8027,2.803,0,0,0,0,0,2.7729,2.7759,2.7759,2.7768,2.7814,2.7847,2.7853,2.7862,2.7853,2.7867,2.7879,2.7878,2.7938,2.7925,2.7933,2.7949,2.801,2.8013,2.8015,2.8023,2.8027,2.803,0,0,0,0,0,0,2.7734,2.7763,2.7763,2.7803,2.7823,2.7847,2.7866,2.7866,2.7888,2.7886,2.7895,2.7901,2.7934,2.7945,2.793,2.7985,2.7973,2.7977,2.7976,2.798,2.7983,2.7979,2.7922,0,0,0,0,0,2.774,2.7766,2.7789,2.7822,2.7831,2.7847,2.7862,2.7867,2.7887,2.7895,2.791,2.7929,2.7952,2.7967,2.7989,2.8026,2.803,2.8041,2.8044,2.8047,2.8049,2.8067,2.8072,2.8024,2.8024,2.8023,0,0,2.7752,2.7771,2.7787,2.7823,2.7839,2.7863,2.7854,2.7881,2.7898,2.7899,2.7931,2.7942,2.7964,2.7998,2.8014,2.8009,2.8064,2.8049,2.8051,2.8053,2.807,2.8075,2.8079,2.8025,2.8025,2.8025,0,0,2.7787,2.7805,2.7833,2.7849,2.7873,2.7883,2.7889,2.7913,2.7921,2.7954,2.7954,2.7974,2.8014,2.8029,2.8042,2.808,2.8078,2.8087,2.8102,2.8119,2.8123,2.8127,2.8138,2.8142,2.809,2.809,2.809,0,2.7799,2.7837,2.7847,2.7873,2.7888,2.789,2.7917,2.7932,2.7962,2.7972,2.7965,2.8014,2.8029,2.8066,2.8075,2.8086,2.8092,2.8083,2.8122,2.8126,2.8129,2.814,2.8144,2.809,2.809,2.809,2.809,0,2.7849,2.7875,2.7895,2.7924,2.7941,2.7968,2.798,2.7996,2.7999,2.8009,2.8041,2.8058,2.8083,2.8093,2.8096,2.8129,2.8125,2.812,2.8108,2.8134,2.8144,2.8149,2.8092,2.8091,2.8091,2.8091,0,0,2.7888,2.7922,2.7929,2.7941,2.7967,2.7987,2.8013,2.8038,2.805,2.8071,2.8091,2.8124,2.8119,2.8134,2.8139,2.8154,2.818,2.8147,2.8148,2.8151,2.8215,2.8218,2.8223,2.818,2.8181,2.8181,2.8213,0,2.7924,2.7971,2.798,2.802,2.8043,2.8045,2.8067,2.8084,2.8094,2.8113,2.8124,2.8146,2.8139,2.8148,2.8163,2.8174,2.8193,2.8172,2.8197,2.8198,2.819,2.8228,2.8231,2.826,2.8217,2.8218,2.8219,0,2.7973,2.7994,2.8037,2.8058,2.8068,2.8088,2.811,2.813,2.8148,2.8154,2.8169,2.8172,2.8197,2.8184,2.8218,2.8203,2.8214,2.822,2.8222,2.8223,2.8209,2.8229,2.827,2.8274,2.8225,2.8225,2.8224,0,2.7994,2.8034,2.8064,2.8075,2.8101,2.8114,2.8125,2.8144,2.8157,2.8177,2.8185,2.8207,2.8219,2.8235,2.8242,2.8233,2.8274,2.8263,2.8278,2.8278,2.8286,2.8285,2.8327,2.8295,2.8295,2.8295,2.8295,0,2.8033,2.8058,2.8074,2.8092,2.812,2.8129,2.8156,2.8167,2.8183,2.8202,2.8204,2.8222,2.8232,2.825,2.8256,2.8281,2.8287,2.8291,2.8292,2.829,2.8289,2.8296,2.8294,2.8296,2.8296,2.8296,2.8295,0,2.8062,2.8074,2.8106,2.8128,2.8134,2.8153,2.8171,2.8187,2.8197,2.8221,2.8227,2.824,2.8262,2.8272,2.8299,2.8302,2.8331,2.8331,2.8325,2.8325,2.8338,2.8336,2.8386,2.8392,2.8357,2.8357,2.8357,0,2.8084,2.8104,2.8128,2.8141,2.8152,2.8174,2.8188,2.8197,2.8211,2.8233,2.8247,2.8269,2.8287,2.8321,2.8333,2.8352,2.8352,2.8368,2.8355,2.8352,2.835,2.8348,2.8349,2.837,2.837,2.8371,2.8371,0,2.8123,2.8128,2.8148,2.817,2.8187,2.8205,2.8222,2.8232,2.8244,2.8259,2.8282,2.8296,2.8323,2.8344,2.8364,2.8374,2.8373,2.8375,2.8379,2.8377,2.8371,2.8372,2.8329,2.8374,2.8373,2.8373,2.8373,2.8373,2.8149,2.8165,2.8184,2.8206,2.822,2.8236,2.8252,2.8263,2.8282,2.8305,2.8309,2.8333,2.8349,2.8376,2.8387,2.8404,2.84,2.8407,2.8408,2.8409,2.8409,2.837,2.8408,2.8408,2.8408,2.8408,2.8408,0,2.8186,2.8198,2.8218,2.8242,2.8259,2.8258,2.8277,2.829,2.8311,2.8327,2.8344,2.8369,2.8389,2.8402,2.8421,2.8433,2.8433,2.8437,2.8436,2.8438,2.8412,2.8406,2.8437,2.8437,2.8437,2.8437,2.8437,2.8437,2.8207,2.8234,2.8241,2.8274,2.8286,2.8309,2.832,2.8333,2.8346,2.8373,2.839,2.8399,2.8412,2.8433,2.8451,2.8454,2.846,2.8464,2.8467,2.8443,2.844,2.8437,2.8431,2.8466,2.8466,2.8491,2.8491,2.8491]}]]